Location: Gugi
(45.4667°N, 11.1000°E)
Time: 20:54:25
(UTC+00:00)

Lacrosse 4 Rocket - Pass Details

Date: 17 November 2019
Orbit: 543 x 616 km, 68.0° (Epoch: 06 December)

Event Time Altitude Azimuth Distance (km) Brightness Sun altitude
Rises 18:30:36 0° 254° (WSW) 2,712 5.9 -29.1°
Reaches altitude 10° 18:33:29 10° 276° (W) 1,816 4.9 -29.6°
Maximum altitude 18:36:07 17° 317° (NW) 1,442 3.9 -30.1°
Enters shadow 18:36:37 16° 326° (NW) 1,457 3.8 -30.2°
